Location: Unspecified
(0.0000°N, 0.0000°E)
Time: 03:28:22
(UTC+01:00)

Delta 168 - Visible Passes

Search period start: 03 December 2016 00:00
Search period end: 13 December 2016 00:00
Orbit: 394 x 2068 km, 25.3° (Epoch: 01 December)

Date Brightness Start Highest point End Pass type
(mag) Time Alt. Az. Time Alt. Az. Time Alt. Az.
03 Dec 6.3 19:18:57 10° NNW 19:23:52 14° N 19:28:07 10° NNE visible
03 Dec 6.4 21:18:29 10° NNW 21:19:56 13° NNW 21:19:56 13° NNW visible
04 Dec 6.3 19:07:50 10° NNW 19:13:46 16° N 19:18:48 10° NE visible
04 Dec 6.1 21:07:22 10° NW 21:10:46 18° NNW 21:10:46 18° NNW visible
05 Dec 5.8 20:56:18 10° NW 21:01:40 25° N 21:01:40 25° N visible
06 Dec 5.4 20:45:14 10° NW 20:52:40 31° N 20:52:40 31° N visible
07 Dec 5.1 20:34:12 10° NW 20:43:28 37° NNE 20:43:46 37° NNE visible
07 Dec 6.9 22:33:45 10° WNW 22:33:51 10° WNW 22:33:51 10° WNW visible
08 Dec 4.9 20:23:11 10° NW 20:33:12 43° NNE 20:34:58 39° NE visible
08 Dec 6.5 22:23:02 10° WNW 22:25:04 17° WNW 22:25:04 17° WNW visible
09 Dec 5.1 20:12:10 10° NW 20:22:53 49° NNE 20:26:17 34° ENE visible
09 Dec 6.1 22:12:19 10° WNW 22:16:24 26° WNW 22:16:24 26° WNW visible
10 Dec 5.1 20:01:11 10° NW 20:12:30 55° NNE 20:17:42 25° E visible
10 Dec 5.6 22:01:37 10° WNW 22:07:49 38° W 22:07:49 38° W visible
11 Dec 5.1 19:50:13 10° NW 20:02:04 62° NNE 20:09:14 16° E visible
11 Dec 5.2 21:50:54 10° WNW 21:59:21 49° WSW 21:59:21 49° WSW visible
12 Dec 5.2 19:39:17 10° NW 19:51:34 68° NNE 20:00:28 10° ESE visible
12 Dec 5.2 21:40:12 10° WNW 21:50:11 49° SSW 21:50:56 48° SSW visible
